Погода в Вельске

Погода в Вельске : погода сейчас, прогноз погоды и архив. Всё, что Вы хотите узнать о погоде в Вельске!

Поиск расширенной информации на нашем сайте:

Другие новости

Новости СМИ2

Главная страница сайта

Новости сайта

03.07.2017

Напоминаем, что на нашем специализированном сайте Метеоцентр.Азия вы можете получить высокодетализированные автоматические прогнозы погоды по пунктам России, СНГ и мира в авиационном формате (включающие направление и скорость ветра, видимость, явления погоды, количество и форму облачности, нижнюю и верхнюю границу облачности).


Погода в Вельске - сегодня

Время (UTC), дата Ветер
(°,м/с) 
Видим.   Явления Облачность Т
(°С)
Тd
(°С)
f(%) Тe
(°С)
Pmin
(гПа)
dP
(гПа)
Po
(мм)
O2
(г/м3)
Тmin Tmax R s Состояние
почвы
00 18.08.17 тихо ()   10 км    8/6 300 м средняя 
[Sc|Ac trans]
+12.1 +11.1 94 +14  1024.4  -0.5  760  291           
03 18.08.17 тихо ()   10 км    9/8 600 м средняя 
[Sc|Ac trans]
+13.5 +12.2 92 +17  1023.9  -0.5  760  289  +11.8        влажная 
06 18.08.17 180 (Ю) 20000 м    5/0 средняя 
[Ac trans]
+20.3 +14.4 69 +28  1023.3  -0.3  760  282           
09 18.08.17 200 (Ю) 20000 м    8/3 600 м верхняя 
[Cu hum|Cc]
+24.2 +14.2 54 +31  1022.7  -0.5  759  278           
12 18.08.17 200 (Ю) 20000 м    8/4 600 м верхняя 
[Cu med, cong|Ci fib]
+24.4 +13.2 50 +30  1021.4  -1.2  758  278           
15 18.08.17 180 (Ю) 20000 м    9/5 600 м средняя, верхняя 
[Cu med, cong|Ac trans|Ci fib]
+22.2 +14.4 61 +30  1020.6  -0.9  758  279    +24.7       
18 18.08.17 190 (Ю) 20000 м    10/8 600 м средняя 
[Sc|Ac trans]
+19.7 +14.3 71 +28  1020.2  -0.5  757  282           
21 18.08.17 170 (Ю) 20000 м  {ливн. осадки}  10/10 600 м 
[Sc]
+16.9 +14.4 85 +24  1019.1  -1.2  756  284           
00 19.08.17 170 (Ю) 20000 м  в посл. час ливневой дождь  10/10 600 м кучево-дожд. 
[Cb cap]
+16.1 +14.7 91 +25  1017.5  -1.6  755  284           
03 19.08.17 180 (Ю) 20000 м    10/10 300 м 
[Sc]
+16.6 +14.7 89 +26  1017.6  0.2  755  284  +16.1      влажная 
06 19.08.17 230 (ЮЗ) 20000 м    10/10 600 м 
[Sc]
+18 +15.4 85 +28  1017.3  -0.3  755  282           
09 19.08.17 230 (ЮЗ) 20000 м    10/10 300 м 
[Sc]
+18.9 +16.1 84 +30  1017.8  0.5  755  281           
12 19.08.17 240 (ЮЗ) 20000 м    5/5 600 м кучево-дожд. 
[Cb cap]
+22.9 +16.5 67 +34  1017.1  -0.5  755  277           
15 19.08.17 250 (З) 20000 м    4/4 300 м кучево-дожд. 
[Cb cap]
+22.4 +16.9 71 +34  1017.1  755  277    +24       
18 19.08.17 190 (Ю) 10 км    8/3 600 м средняя, верхняя 
[Cu hum|Ac trans|Ci fib]
+18.4 +16.4 88 +31  1017.4  0.1  755  281           
21 19.08.17 тихо ()   10 км  местами туман поземный  ясно 
+15.6 +14.6 94 +23  1017.9  0.4  755  285           
00 20.08.17 тихо ()   4000 м  дымка  ясно 
+14.5 +13.7 95 +21  1017.7  -0.2  755  286           
03 20.08.17 тихо ()   2000 м  дымка  5/0 верхняя 
[Ci fib]
+14.4 +13.6 95 +21  1017  -0.7  755  286  +14.1        влажная 
06 20.08.17 200 (Ю) 20000 м    3/0 верхняя 
[Ci fib]
+23 +17.3 70 +36  1016.6  755  277           
09 20.08.17 200 (Ю) 20000 м    3/0 верхняя 
[Ci fib]
+27.6 +16.7 51 +39  1016.1  -0.4  754  272           
12 20.08.17 200 (Ю) 20000 м    3/0 верхняя 
[Ci fib]
+29.5 +15.8 44 +39  1015.9  0.1  754  271           
15 20.08.17 200 (Ю) 20000 м    3/0 верхняя 
[Ci fib]
+27.5 +16.3 50 +38  1015.7  -0.3  754  273    +29.8       
18 20.08.17 180 (Ю) 20000 м    ясно 
+22.7 +16.8 69 +34  1016.3  0.5  754  277           
21 20.08.17 230 (ЮЗ) 20000 м    ясно 
+21.1 +16.7 76 +33  1017.5  1.1  755  279           
00 21.08.17 тихо ()   20000 м    8/8 600 м 
[Sc]
+18.5 +16.6 89 +30  1018.7  756  282           
Время (UTC), дата Ветер
(°,м/с) 
Видим.   Явления Облачность Т
(°С)
Тd
(°С)
f(%) Тe
(°С)
Pmin
(гПа)
dP
(гПа)
Po
(мм)
O2
(г/м3)
Тmin Tmax R s Состояние
почвы

Для получения пояснительной информации подведите курсор к названию столбца.

ПОГОДА в Вельске - архив

Всё, что Вы хотите узнать о погоде в Вельске - удобно и подробно!

Выберите нужную дату (начиная с 1 января 2015* года) и нажмите кнопку "Найти".
Будут отображены архивные сводки погоды по пункту Вельск, начиная с указанной даты.


Отображать данные в формате CSV (для использования в таблицах Excel)


Внимание! Наш архив погоды предназначен исключительно для личного некоммерческого использования в познавательных целях. Если Вам необходимы официальные справки о состоянии погоды (для производственных, юридических, коммерческих и т.п. целей), обращайтесь в органы Росгидромета.

*Примечание: данная дата относится к архиву по метеостанциям СССР (Россия, СНГ, Балтия).
Архив по метеостанциям Зарубежной Европы и Азии (кроме Китая) хранится 10 дней, по другим регионам земного шара (Китай, Африка, Америка, Австралия, Океания) - 1 день.

Вельск - район местоположения метеостанции


Название, широта, долгота, высота метеостанции:
Вельск 61.1°ш. 42.1°д. 91 м над ур. моря [Российская Федерация]

Дополнительная информация

В oтличие oт бoльшинства пoгoдных сайтoв мы публикуем пoдрoбную метеoинфoрмацию в детальнoм прoфессиoнальнoм фoрмате.

Характеристики температуры и влажнoсти вoздуха измеряются на высoте 2 м в тени вдали oт зданий и деревьев.
Скoрoсть ветра измеряется на высoте 10 м (на урoвне рoста челoвека скoрoсть ветра ниже в 1.5-2 раза). Если метеoстанция нахoдится в гoрoде или в лесу, тo скoрoсть ветра занижена на 2-4 м/с пo сравнению с oткрытым местoм. Скoрoсть ветра над акватoриями крупных рек и oзёр, а также на вершинах хoлмoв на 2-5 м/с выше, чем в oбычных услoвиях.
Атмoсфернoе давление в разных тoчках местнoсти мoжет значительнo oтличаться oт давления на метеoстанции, в зависимoсти oт услoвий рельефа (при пoдъёме на 10 м давление пoнижается примернo на 1 мм рт.ст.).